EW0352 Weather Reports


Display with metric or nautical units.
time (UTC)temp
F
wind
direction
speed
MPH
gust
MPH
rain 1hr
in
rain 24hr
in
rain mn
in
humidity
%
barometer
mb
20240529142653 58 182 2.0 3.0 0.00 0.04 0.00 77 1026.0
20240529142154 58 210 2.0 3.0 0.00 0.04 0.00 78 1026.0
20240529141654 57 184 1.0 2.0 0.00 0.04 0.00 79 1026.1
20240529141154 57 184 1.0 2.0 0.00 0.04 0.00 79 1026.1
20240529140654 57 184 1.0 2.0 0.00 0.04 0.00 81 1026.0
20240529140153 56 184 0.0 3.0 0.00 0.04 0.00 81 1025.9
20240529135653 56 184 1.0 2.0 0.00 0.04 0.00 83 1025.9
20240529135154 56 184 1.0 3.0 0.00 0.04 0.00 83 1026.0
20240529134654 55 163 1.0 2.0 0.00 0.04 0.00 84 1026.0
20240529134153 55 54 0.0 2.0 0.00 0.04 0.00 84 1025.9
20240529133654 55 151 0.0 1.0 0.00 0.04 0.00 87 1025.9
20240529133154 54 151 0.0 1.0 0.00 0.04 0.00 87 1025.9
20240529132653 54 137 1.0 2.0 0.00 0.04 0.00 88 1025.9
20240529132155 54 86 1.0 3.0 0.00 0.04 0.00 89 1025.8
20240529131654 53 5 0.0 3.0 0.00 0.04 0.00 90 1025.7
20240529130153 52 9 1.0 3.0 0.00 0.04 0.00 92 1025.7
20240529124653 51 57 1.0 2.0 0.00 0.07 0.00 94 1025.6
20240529124154 51 89 1.0 3.0 0.00 0.07 0.00 94 1025.5
20240529123654 51 355 0.0 1.0 0.00 0.07 0.00 94 1025.3
20240529123154 51 355 1.0 2.0 0.00 0.07 0.00 95 1025.3
20240529122654 50 355 1.0 2.0 0.00 0.08 0.00 95 1025.3
20240529122154 50 355 0.0 0.0 0.00 0.10 0.00 95 1025.3
20240529121654 50 355 0.0 0.0 0.00 0.12 0.00 95 1025.2
20240529120654 49 355 0.0 0.0 0.00 0.12 0.00 95 1025.2
20240529120154 48 355 0.0 0.0 0.00 0.12 0.00 94 1025.1
20240529115154 48 355 0.0 1.0 0.00 0.12 0.00 95 1024.9
20240529114654 47 355 0.0 1.0 0.00 0.12 0.00 94 1024.9
20240529113654 47 355 0.0 0.0 0.00 0.12 0.00 94 1024.6
20240529113155 47 355 0.0 0.0 0.00 0.12 0.00 94 1024.6
20240529112653 47 355 0.0 0.0 0.00 0.12 0.00 94 1024.6
20240529112154 47 355 0.0 0.0 0.00 0.12 0.00 94 1024.5
20240529111654 47 355 0.0 0.0 0.00 0.12 0.00 94 1024.4
20240529110154 47 355 0.0 0.0 0.00 0.12 0.00 94 1024.2
20240529105654 47 355 0.0 1.0 0.00 0.12 0.00 94 1024.2
20240529105154 47 355 0.0 0.0 0.00 0.12 0.00 93 1024.0
20240529104654 47 355 0.0 0.0 0.00 0.12 0.00 93 1024.0
20240529104155 47 355 0.0 0.0 0.00 0.12 0.00 93 1023.9
20240529103654 47 355 0.0 0.0 0.00 0.12 0.00 93 1023.8
20240529103154 47 355 0.0 0.0 0.00 0.12 0.00 93 1023.8
20240529102654 47 355 0.0 0.0 0.00 0.12 0.00 93 1023.8
20240529102154 47 355 0.0 0.0 0.00 0.12 0.00 93 1023.8
20240529101654 47 355 0.0 0.0 0.00 0.12 0.00 93 1023.9
20240529101154 47 355 0.0 0.0 0.00 0.12 0.00 93 1024.0
20240529100654 47 355 0.0 0.0 0.00 0.12 0.00 93 1023.8
20240529095653 48 355 0.0 0.0 0.00 0.12 0.00 93 1023.6
20240529095154 48 355 0.0 0.0 0.00 0.12 0.00 93 1023.6
20240529094654 48 355 0.0 0.0 0.00 0.12 0.00 93 1023.5
20240529094154 48 355 0.0 2.0 0.00 0.12 0.00 93 1023.5
20240529093154 48 355 1.0 2.0 0.00 0.12 0.00 93 1023.4
20240529092654 48 355 1.0 2.0 0.00 0.12 0.00 92 1023.3
20240529092156 48 355 1.0 2.0 0.00 0.12 0.00 92 1023.3
20240529091656 48 355 0.0 2.0 0.00 0.12 0.00 92 1023.3
20240529090654 48 355 0.0 1.0 0.00 0.12 0.00 92 1023.3
20240529090154 48 355 0.0 2.0 0.00 0.12 0.00 92 1023.3
20240529085153 49 355 0.0 2.0 0.00 0.12 0.00 92 1023.2
20240529084654 49 355 0.0 2.0 0.00 0.12 0.00 92 1023.2
20240529084154 49 355 0.0 2.0 0.00 0.12 0.00 92 1023.0
20240529083654 49 355 0.0 2.0 0.00 0.12 0.00 92 1023.0
20240529083154 49 355 0.0 2.0 0.00 0.12 0.00 91 1023.0
20240529082654 49 355 0.0 1.0 0.00 0.12 0.00 91 1023.0
20240529081654 49 355 0.0 0.0 0.00 0.12 0.00 91 1023.0
20240529080654 49 355 0.0 0.0 0.00 0.12 0.00 90 1022.9
20240529080154 49 355 0.0 0.0 0.00 0.12 0.00 90 1022.8
20240529075154 50 355 0.0 1.0 0.00 0.12 0.00 90 1022.7
20240529074654 50 355 0.0 1.0 0.00 0.12 0.00 89 1022.6
20240529074155 50 355 0.0 0.0 0.00 0.12 0.00 89 1022.6
20240529073654 51 355 0.0 0.0 0.00 0.12 0.00 88 1022.5
20240529073156 51 355 0.0 1.0 0.00 0.12 0.00 88 1022.4
20240529072654 51 355 0.0 2.0 0.00 0.12 0.00 88 1022.4
20240529071654 51 355 0.0 1.0 0.00 0.12 0.00 88 1022.4
20240529071154 51 355 1.0 2.0 0.00 0.12 0.00 88 1022.4
20240529070154 51 355 1.0 3.0 0.00 0.12 0.00 88 1022.4
20240529065654 51 14 1.0 3.0 0.00 0.12 0.00 88 1022.3
20240529065154 51 355 1.0 2.0 0.00 0.12 0.00 88 1022.2
20240529064654 52 38 1.0 3.0 0.00 0.12 0.00 88 1022.2
20240529064154 52 36 1.0 3.0 0.00 0.12 0.00 88 1022.2
20240529063654 52 28 1.0 2.0 0.00 0.12 0.00 87 1022.2
20240529063154 52 44 1.0 2.0 0.00 0.12 0.00 87 1022.2
20240529062654 52 44 1.0 2.0 0.00 0.12 0.00 88 1022.2
20240529062154 52 44 1.0 3.0 0.00 0.12 0.00 88 1022.2
20240529061654 52 11 1.0 3.0 0.00 0.12 0.00 88 1022.2
20240529061154 52 48 1.0 3.0 0.00 0.12 0.00 88 1022.3
20240529060654 52 341 1.0 3.0 0.00 0.12 0.00 88 1022.3
20240529060155 52 341 1.0 2.0 0.00 0.12 0.00 88 1022.2
20240529055654 52 337 1.0 3.0 0.00 0.12 0.00 89 1022.3
20240529055154 51 355 1.0 3.0 0.00 0.12 0.00 89 1022.2
20240529054655 51 332 1.0 3.0 0.00 0.12 0.00 89 1022.3
20240529054154 51 338 1.0 5.0 0.00 0.12 0.00 90 1022.2
20240529053654 51 343 2.0 3.0 0.00 0.12 0.00 90 1022.2
20240529053154 51 0 1.0 3.0 0.00 0.12 0.00 90 1022.2
20240529052655 51 0 1.0 3.0 0.00 0.12 0.00 90 1022.3
20240529052155 51 0 0.0 1.0 0.00 0.12 0.00 90 1022.3
20240529051655 51 0 0.0 1.0 0.00 0.12 0.00 90 1022.3
20240529051154 51 0 0.0 1.0 0.00 0.12 0.00 90 1022.3
20240529050656 51 0 0.0 1.0 0.00 0.12 0.00 90 1022.3
20240529050155 51 0 0.0 0.0 0.00 0.12 0.00 90 1022.3
20240529045154 51 0 0.0 0.0 0.00 0.12 0.12 90 1022.2
20240529044656 51 0 0.0 0.0 0.00 0.12 0.12 90 1022.1
20240529044154 51 0 0.0 0.0 0.00 0.12 0.12 90 1022.1
20240529043654 52 0 0.0 0.0 0.00 0.12 0.12 89 1022.1
20240529043155 52 0 0.0 0.0 0.00 0.12 0.12 89 1022.1
20240529042654 52 0 0.0 0.0 0.00 0.12 0.12 89 1022.1
20240529042154 52 0 0.0 0.0 0.00 0.12 0.12 89 1022.1
20240529041654 52 0 0.0 0.0 0.00 0.12 0.12 88 1022.1
20240529041154 53 0 0.0 0.0 0.00 0.12 0.12 88 1022.1
20240529040654 53 0 0.0 0.0 0.00 0.12 0.12 88 1022.1
20240529040155 53 0 0.0 0.0 0.00 0.12 0.12 88 1022.0
20240529035655 53 0 0.0 0.0 0.00 0.12 0.12 87 1022.0
20240529035154 53 0 0.0 0.0 0.00 0.12 0.12 87 1022.0
20240529035027 53 0 0.0 0.0 0.00 0.12 0.12 87 1022.0
20240529034210 53 0 0.0 0.0 0.00 0.12 0.12 87 1021.9
20240529033145 54 0 0.0 0.0 0.00 0.12 0.12 85 1021.8
20240529031334 55 0 0.0 0.0 0.00 0.12 0.12 83 1021.7
20240529025742 55 0 0.0 0.0 0.00 0.12 0.12 83 1021.6
20240529024453 56 0 0.0 0.0 0.00 0.12 0.12 80 1021.3
20240529023244 57 0 0.0 0.0 0.00 0.12 0.12 80 1021.3
20240529021844 58 0 0.0 0.0 0.00 0.12 0.12 76 1021.0
20240529015926 60 0 0.0 1.0 0.00 0.12 0.12 70 1020.8
20240529013147 61 0 1.0 2.0 0.00 0.12 0.12 68 1020.7
20240529011720 61 0 1.0 3.0 0.00 0.12 0.12 69 1020.7
20240529010239 61 0 1.0 3.0 0.00 0.12 0.12 70 1020.5
20240529004456 61 0 0.0 1.0 0.00 0.12 0.12 71 1020.6
20240529003225 61 0 1.0 2.0 0.00 0.12 0.12 70 1020.4
20240529000512 62 35 0.0 1.0 0.00 0.12 0.12 70 1020.2
20240528235002 62 55 1.0 2.0 0.00 0.12 0.12 68 1020.2
20240528233028 62 91 1.0 3.0 0.00 0.12 0.12 72 1020.1
20240528231357 60 93 0.0 2.0 0.02 0.12 0.12 83 1020.2
20240528224641 58 93 1.0 3.0 0.03 0.12 0.12 84 1020.2
20240528223656 58 80 1.0 2.0 0.03 0.12 0.12 82 1020.2
20240528223156 59 80 1.0 2.0 0.03 0.12 0.12 80 1020.2
20240528222155 61 49 2.0 5.0 0.03 0.13 0.12 73 1020.4
20240528221655 63 35 5.0 16.0 0.02 0.12 0.10 68 1020.4
20240528221156 65 350 5.0 15.0 0.01 0.10 0.09 63 1020.1
20240528220655 66 338 7.0 16.0 0.01 0.10 0.09 58 1019.9
20240528220155 67 332 3.0 8.0 0.00 0.09 0.08 54 1019.7
20240528215656 67 33 3.0 13.0 0.00 0.10 0.08 52 1019.5
20240528215156 68 348 6.0 16.0 0.00 0.12 0.08 49 1019.5
20240528214655 68 31 3.0 12.0 0.00 0.12 0.08 53 1019.6
20240528214155 68 324 6.0 13.0 0.00 0.13 0.08 50 1019.6
20240528213155 68 332 3.0 9.0 0.00 0.14 0.08 55 1019.5
20240528212156 67 317 4.0 10.0 0.00 0.15 0.08 54 1019.4
20240528211657 67 336 3.0 10.0 0.00 0.16 0.08 54 1019.4
20240528211155 67 46 3.0 9.0 0.00 0.18 0.08 56 1019.3
20240528210656 67 327 4.0 12.0 0.00 0.23 0.08 59 1019.3
20240528210155 66 355 2.0 5.0 0.00 0.24 0.08 62 1019.3
20240528205155 66 314 3.0 7.0 0.00 0.29 0.08 64 1019.3
20240528204656 65 346 2.0 5.0 0.00 0.30 0.08 65 1019.4
20240528204155 64 323 2.0 5.0 0.00 0.31 0.08 70 1019.5
20240528203655 64 314 1.0 8.0 0.00 0.31 0.08 66 1019.5
20240528203156 63 325 1.0 6.0 0.01 0.31 0.08 69 1019.5
20240528202655 63 42 3.0 6.0 0.01 0.31 0.08 70 1019.5
20240528202156 63 58 1.0 3.0 0.01 0.31 0.08 73 1019.6
20240528201655 63 23 1.0 6.0 0.01 0.31 0.08 72 1019.6
20240528201155 62 28 3.0 12.0 0.01 0.31 0.08 72 1019.6
20240528200655 62 341 6.0 12.0 0.01 0.31 0.08 72 1019.7
20240528200155 61 340 4.0 9.0 0.01 0.31 0.08 74 1019.6
20240528195155 61 310 4.0 10.0 0.01 0.31 0.08 75 1019.6
20240528194655 62 334 3.0 8.0 0.01 0.31 0.08 72 1019.5
20240528194156 63 302 3.0 10.0 0.01 0.31 0.08 72 1019.4
20240528193656 64 317 6.0 14.0 0.01 0.31 0.08 67 1019.3
20240528192155 65 290 4.0 9.0 0.00 0.30 0.07 68 1019.1
20240528191656 65 323 2.0 5.0 0.00 0.30 0.07 70 1019.2
20240528191156 64 290 4.0 9.0 0.00 0.30 0.07 71 1019.2
20240528190656 64 330 2.0 5.0 0.00 0.30 0.07 68 1019.3
20240528190155 63 283 3.0 7.0 0.00 0.30 0.07 68 1019.2
20240528185656 63 254 3.0 6.0 0.00 0.30 0.07 67 1019.3
20240528184155 62 273 2.0 7.0 0.00 0.30 0.07 73 1019.2
20240528183656 62 315 1.0 3.0 0.00 0.30 0.07 75 1019.2
20240528183156 61 276 4.0 8.0 0.00 0.30 0.07 72 1019.3
20240528182156 62 312 4.0 8.0 0.00 0.30 0.07 71 1019.4
20240528181156 61 333 4.0 10.0 0.00 0.30 0.07 69 1019.5
20240528180656 62 301 2.0 10.0 0.00 0.30 0.07 65 1019.6
20240528175656 63 277 4.0 14.0 0.00 0.30 0.07 70 1019.3
20240528175156 63 295 3.0 10.0 0.00 0.30 0.07 68 1019.3
20240528174156 62 18 2.0 9.0 0.00 0.30 0.07 70 1019.3
20240528173156 61 291 4.0 8.0 0.00 0.30 0.07 71 1019.4
20240528172656 60 340 3.0 9.0 0.00 0.30 0.07 75 1019.4
20240528172155 60 322 2.0 7.0 0.00 0.30 0.07 77 1019.3
20240528171655 60 323 3.0 10.0 0.00 0.31 0.07 75 1019.3
20240528171156 60 310 4.0 8.0 0.00 0.31 0.07 74 1019.4
20240528170655 61 305 5.0 12.0 0.00 0.31 0.07 73 1019.3
20240528170156 61 355 4.0 9.0 0.00 0.31 0.07 76 1019.3
20240528165656 60 19 2.0 6.0 0.00 0.31 0.07 78 1019.3
20240528165156 59 6 3.0 9.0 0.00 0.31 0.07 78 1019.3
20240528164156 59 335 3.0 8.0 0.00 0.31 0.07 77 1019.3
20240528163655 59 1 2.0 7.0 0.00 0.31 0.07 78 1019.3
20240528161156 58 350 3.0 12.0 0.00 0.31 0.07 82 1019.2
20240528160656 58 351 3.0 12.0 0.00 0.31 0.07 86 1019.1
20240528160156 58 309 5.0 12.0 0.00 0.31 0.07 84 1019.1
20240528154656 57 335 3.0 9.0 0.00 0.31 0.07 89 1018.8
20240528154155 56 21 2.0 8.0 0.00 0.31 0.07 91 1018.9
20240528153656 56 355 2.0 3.0 0.00 0.33 0.07 92 1019.0
20240528153157 56 22 2.0 10.0 0.00 0.34 0.07 93 1019.0
20240528152156 56 334 1.0 3.0 0.00 0.34 0.07 95 1018.8
20240528151655 55 8 3.0 3.0 0.00 0.35 0.07 95 1018.9
20240528151155 54 30 2.0 5.0 0.00 0.35 0.07 95 1018.9
20240528150656 54 318 2.0 3.0 0.00 0.35 0.07 95 1018.9
20240528145657 54 334 1.0 3.0 0.00 0.36 0.07 95 1018.7
20240528145157 54 353 1.0 3.0 0.00 0.37 0.07 95 1018.7
20240528144656 54 342 1.0 3.0 0.00 0.37 0.07 95 1018.8
20240528144156 54 337 2.0 3.0 0.00 0.37 0.07 95 1018.8
20240528143656 54 10 1.0 5.0 0.00 0.37 0.07 95 1018.7
20240528143156 54 324 2.0 6.0 0.00 0.37 0.07 95 1018.6